When you browse on this site, cookies collect data to enhance your experience and personalize the content and advertising you see.
Visit our Privacy Policy to learn more. By continuing to use the site, you agree to this use of cookies and data.
  • In Hungary
  • List of Countries
  • For 7 days
  • Water Temperature
  • Satellite Maps
  • Weather Map
  • News
  • Weather Widgets
  • user-avatar
    Login

    Hourly Weather Alamogordo

    Today, 24 June, Monday

    Time Temperature Precipitation Wind Pressure Humidity
    00:00 +24°C° 0 mm 3 mps 649 mmHg 19%
    01:00 +24°C° 0 mm 3 mps 649 mmHg 20%
    02:00 +22°C° 0 mm 3 mps 649 mmHg 20%
    03:00 +21°C° 0 mm 3 mps 649 mmHg 20%
    04:00 +21°C° 0 mm 3 mps 649 mmHg 20%
    05:00 +20°C° 0 mm 2 mps 650 mmHg 19%
    06:00 +23°C° 0 mm 2 mps 650 mmHg 17%
    07:00 +25°C° 0 mm 2 mps 651 mmHg 15%
    08:00 +27°C° 0 mm 2 mps 652 mmHg 14%
    09:00 +29°C° 0 mm 2 mps 652 mmHg 12%
    10:00 +30°C° 0 mm 3 mps 652 mmHg 11%
    11:00 +31°C° 0 mm 3 mps 652 mmHg 10%
    12:00 +33°C° 0 mm 4 mps 652 mmHg 10%
    13:00 +33°C° 0 mm 4 mps 651 mmHg 9%
    14:00 +34°C° 0 mm 5 mps 651 mmHg 9%
    15:00 +34°C° 0 mm 4 mps 651 mmHg 9%
    16:00 +34°C° 0 mm 4 mps 650 mmHg 9%
    17:00 +34°C° 0 mm 3 mps 650 mmHg 9%
    18:00 +31°C° 0 mm 3 mps 649 mmHg 10%
    19:00 +29°C° 0 mm 2 mps 649 mmHg 12%
    20:00 +27°C° 0 mm 2 mps 648 mmHg 14%
    21:00 +27°C° 0 mm 2 mps 648 mmHg 14%
    22:00 +26°C° 0 mm 2 mps 648 mmHg 13%
    23:00 +26°C° 0 mm 2 mps 648 mmHg 13%

    Tomorrow, 25 June, Tuesday

    Time Temperature Precipitation Wind Pressure Humidity
    00:00 +25°C° 0 mm 2 mps 648 mmHg 13%
    01:00 +25°C° 0 mm 2 mps 648 mmHg 14%
    02:00 +24°C° 0 mm 1 mps 648 mmHg 14%
    03:00 +24°C° 0 mm 1 mps 648 mmHg 15%
    04:00 +23°C° 0 mm 1 mps 648 mmHg 15%
    05:00 +23°C° 0 mm 1 mps 648 mmHg 16%
    06:00 +25°C° 0 mm 2 mps 649 mmHg 16%
    07:00 +28°C° 0 mm 3 mps 651 mmHg 16%
    08:00 +32°C° 0 mm 4 mps 652 mmHg 16%
    09:00 +33°C° 0 mm 4 mps 652 mmHg 14%
    10:00 +34°C° 0 mm 5 mps 652 mmHg 13%
    11:00 +36°C° 0 mm 5 mps 653 mmHg 11%
    12:00 +36°C° 0 mm 5 mps 652 mmHg 11%
    13:00 +37°C° 0 mm 5 mps 652 mmHg 10%
    14:00 +37°C° 0 mm 5 mps 652 mmHg 9%
    15:00 +37°C° 0 mm 5 mps 651 mmHg 9%
    16:00 +37°C° 0 mm 5 mps 651 mmHg 10%
    17:00 +36°C° 0 mm 4 mps 651 mmHg 10%
    18:00 +34°C° 0 mm 3 mps 650 mmHg 11%
    19:00 +31°C° 0 mm 2 mps 650 mmHg 13%
    20:00 +29°C° 0 mm 1 mps 649 mmHg 15%
    21:00 +28°C° 0 mm 2 mps 650 mmHg 18%
    22:00 +28°C° 0 mm 3 mps 650 mmHg 21%
    23:00 +27°C° 0 mm 4 mps 650 mmHg 24%

    Day after tomorrow, 26 June, Wednesday

    Time Temperature Precipitation Wind Pressure Humidity
    00:00 +27°C° 0 mm 4 mps 650 mmHg 27%
    01:00 +26°C° 0 mm 3 mps 650 mmHg 31%
    02:00 +26°C° 0 mm 3 mps 650 mmHg 34%
    03:00 +26°C° 0 mm 3 mps 650 mmHg 35%
    04:00 +25°C° 0 mm 3 mps 651 mmHg 36%
    05:00 +25°C° 0 mm 3 mps 651 mmHg 37%
    06:00 +27°C° 0 mm 3 mps 652 mmHg 33%
    07:00 +29°C° 0 mm 3 mps 653 mmHg 29%
    08:00 +32°C° 0 mm 4 mps 653 mmHg 25%
    09:00 +34°C° 0 mm 5 mps 654 mmHg 23%
    10:00 +35°C° 0 mm 6 mps 654 mmHg 22%
    11:00 +36°C° 0 mm 7 mps 654 mmHg 20%
    12:00 +38°C° 0 mm 7 mps 654 mmHg 18%
    13:00 +38°C° 0 mm 7 mps 653 mmHg 16%
    14:00 +38°C° 0 mm 8 mps 653 mmHg 15%
    15:00 +38°C° 0 mm 7 mps 653 mmHg 15%
    16:00 +38°C° 0 mm 6 mps 653 mmHg 16%
    17:00 +36°C° 0 mm 6 mps 653 mmHg 17%
    18:00 +33°C° 0 mm 6 mps 652 mmHg 25%
    19:00 +29°C° 0 mm 7 mps 652 mmHg 34%
    20:00 +27°C° 0 mm 7 mps 651 mmHg 42%
    21:00 +26°C° 0 mm 6 mps 652 mmHg 42%
    22:00 +26°C° 0 mm 4 mps 652 mmHg 42%
    23:00 +25°C° 0 mm 3 mps 652 mmHg 42%

    27 June, Thursday

    Time Temperature Precipitation Wind Pressure Humidity
    00:00 +25°C° 0 mm 2 mps 652 mmHg 43%
    01:00 +25°C° 0 mm 2 mps 652 mmHg 44%
    02:00 +24°C° 0 mm 1 mps 652 mmHg 45%
    03:00 +24°C° 0 mm 1 mps 652 mmHg 46%
    04:00 +23°C° 0 mm 1 mps 652 mmHg 47%
    05:00 +23°C° 0 mm 1 mps 652 mmHg 49%
    06:00 +25°C° 0 mm 2 mps 653 mmHg 44%
    07:00 +28°C° 0 mm 2 mps 654 mmHg 39%
    08:00 +30°C° 0 mm 2 mps 655 mmHg 34%
    09:00 +31°C° 0 mm 3 mps 655 mmHg 32%
    10:00 +34°C° 0 mm 4 mps 655 mmHg 30%
    11:00 +35°C° 0 mm 5 mps 655 mmHg 28%
    12:00 +36°C° 0 mm 5 mps 655 mmHg 26%
    13:00 +36°C° 0 mm 5 mps 654 mmHg 24%
    14:00 +37°C° 0 mm 4 mps 654 mmHg 23%
    15:00 +36°C° 0.3 mm 5 mps 653 mmHg 25%
    16:00 +35°C° 0.3 mm 5 mps 653 mmHg 28%
    17:00 +34°C° 0.3 mm 5 mps 652 mmHg 31%
    18:00 +30°C° 1.4 mm 5 mps 652 mmHg 42%
    19:00 +27°C° 1.4 mm 4 mps 652 mmHg 54%
    20:00 +23°C° 1.4 mm 4 mps 651 mmHg 66%
    21:00 +25°C° 0.3 mm 3 mps 652 mmHg 62%
    22:00 +25°C° 0.3 mm 2 mps 653 mmHg 58%
    23:00 +25°C° 0.3 mm 2 mps 654 mmHg 54%

    28 June, Friday

    Time Temperature Precipitation Wind Pressure Humidity
    00:00 +25°C° 0 mm 1 mps 653 mmHg 54%
    01:00 +25°C° 0 mm 1 mps 653 mmHg 55%
    02:00 +23°C° 0 mm 0 mps 653 mmHg 55%
    03:00 +25°C° 0 mm 1 mps 653 mmHg 55%
    04:00 +25°C° 0 mm 1 mps 653 mmHg 54%
    05:00 +24°C° 0 mm 2 mps 653 mmHg 54%
    06:00 +26°C° 0 mm 1 mps 653 mmHg 49%
    07:00 +27°C° 0 mm 1 mps 654 mmHg 44%
    08:00 +29°C° 0 mm 1 mps 654 mmHg 39%
    09:00 +30°C° 0 mm 2 mps 654 mmHg 35%
    10:00 +32°C° 0 mm 2 mps 655 mmHg 32%
    11:00 +34°C° 0 mm 3 mps 655 mmHg 28%
    12:00 +34°C° 0.6 mm 3 mps 654 mmHg 29%
    13:00 +34°C° 0.6 mm 3 mps 653 mmHg 31%
    14:00 +34°C° 0.6 mm 3 mps 653 mmHg 32%
    15:00 +33°C° 0.9 mm 4 mps 652 mmHg 34%
    16:00 +32°C° 0.9 mm 5 mps 652 mmHg 36%
    17:00 +29°C° 0.9 mm 6 mps 652 mmHg 38%
    18:00 +29°C° 0.2 mm 5 mps 652 mmHg 39%
    19:00 +28°C° 0.2 mm 3 mps 652 mmHg 40%
    20:00 +28°C° 0.2 mm 2 mps 652 mmHg 40%
    21:00 +27°C° 0.4 mm 2 mps 652 mmHg 45%
    22:00 +26°C° 0.4 mm 3 mps 653 mmHg 50%
    23:00 +25°C° 0.4 mm 3 mps 653 mmHg 54%

    29 June, Saturday

    Time Temperature Precipitation Wind Pressure Humidity
    00:00 +25°C° 0 mm 3 mps 652 mmHg 55%
    01:00 +25°C° 0 mm 2 mps 652 mmHg 55%
    02:00 +25°C° 0 mm 2 mps 652 mmHg 55%
    03:00 +25°C° 0 mm 1 mps 652 mmHg 55%
    04:00 +24°C° 0 mm 1 mps 651 mmHg 54%
    05:00 +24°C° 0 mm 1 mps 651 mmHg 54%
    06:00 +26°C° 0 mm 1 mps 652 mmHg 49%
    07:00 +27°C° 0 mm 1 mps 653 mmHg 45%
    08:00 +29°C° 0 mm 1 mps 653 mmHg 41%
    09:00 +30°C° 0 mm 1 mps 653 mmHg 38%
    10:00 +31°C° 0 mm 2 mps 654 mmHg 35%
    11:00 +32°C° 0 mm 2 mps 654 mmHg 32%
    12:00 +33°C° 1.3 mm 3 mps 653 mmHg 36%
    13:00 +32°C° 1.3 mm 4 mps 652 mmHg 41%
    14:00 +30°C° 1.3 mm 5 mps 651 mmHg 45%
    15:00 +30°C° 1.1 mm 5 mps 651 mmHg 42%
    16:00 +30°C° 1.1 mm 5 mps 651 mmHg 39%
    17:00 +30°C° 1.1 mm 5 mps 651 mmHg 37%
    18:00 +29°C° 0.2 mm 4 mps 651 mmHg 37%
    19:00 +28°C° 0.2 mm 4 mps 651 mmHg 38%
    20:00 +27°C° 0.2 mm 3 mps 651 mmHg 39%
    21:00 +27°C° 0.1 mm 3 mps 651 mmHg 39%
    22:00 +27°C° 0.1 mm 2 mps 651 mmHg 40%
    23:00 +27°C° 0.1 mm 2 mps 651 mmHg 40%
    Show more